sat.trackr.live / text

‹ back to catalog

STARLINK-4032

NORAD 52688 · 2022-053AJ

PAYLOAD ACTIVE UNKNOWN

§ Identity

Operator
Country
US
Launch date
2022-05-18
Launch site
AFETR
Launch vehicle
Mass (kg)
RCS (m²)

Purposes: comms

External: N2YO · Heavens-Above · Gunter

§ Orbital elements

Epoch: 2026-05-25T00:43:24.053664Z

Period
95.44 min
Inclination
53.2130°
Eccentricity
0.0001041
Mean motion
15.08837985 rev/d
Perigee alt
539.0 km
Apogee alt
540.5 km
Semi-major
6,917.9 km
B*
-1.2112e-5
RAAN
161.2990°
Arg perigee
95.7249°
Mean anomaly
264.3862°
Rev number
22,264

§ Raw data

STARLINK-40321 52688U 22053AJ  26145.03013951 -.00000481  00000+0 -12112-4 0  99962 52688  53.2130 161.2990 0001041  95.7249 264.3862 15.08837985222646

JSON: /api/v1/satellites/52688 · /tle

For live sub-satellite position, see the globe view (requires WebGL).

§ Visibility from observer

Set your observer location to see the next 7 days of passes ≥ 10°. The values pass through the URL so the page stays shareable.

No JS? Fill the form by hand. The geolocation button needs JavaScript.